Flag for Madagascar Weather past 2 weeks in Antananarivo, Madagascar

Now
82 °F

Partly sunny.


Feels Like: 87 °F
Forecast: 63 / 82 °F
Wind: 3 mph from North

Location: Antananarivo / Ivato

Current Time: Dec 21, 2014 at 2:43:23 PM

Latest Report: Dec 21, 2014 at 2:00 PM


Visibility: N/A

Pressure: 30.04 "Hg

Humidity: 70%

Dew point: 72 °F

Location of AntananarivoLocation

Historic Weather in Antananarivo — Graph

°F

Antananarivo temperature yesterday

Maximum temperature yesterday: 82 °F (at 11:30 AM)
Minimum temperature yesterday: 64 °F (at 3:00 AM)
Average temperature yesterday: 72 °F

Past Weeks' High & Low Weather Summary

 TemperatureHumidityPressure
High88 °F (Dec 13, 12:30 PM)100% (Dec 6, 4:30 PM)30.24 "Hg (Dec 6, 4:30 PM)
Low59 °F (Dec 7, 4:00 AM)49% (Dec 14, 3:00 PM)30.01 "Hg (Dec 18, 2:00 PM)
Average71 °F89%30.14 "Hg
* Reported Dec 6 1:00 PM — Dec 21 1:30 PM, Antananarivo, Weather by CustomWeather, © 2014

Note: Actual official high and low records may vary slightly from our data, if they occured in-between our weather recording intervals... More about our weather records

Advertising

Antananarivo weather history for previous 24 hours

 ConditionsComfort  
Time TempWeatherWind HumidityBarometerVisibility
1:30 PM
Dec 21
84 °FPartly sunny.2 mph66%30.04 "HgN/A
1:00 PM82 °FPartly sunny.3 mph66%30.07 "HgN/A
12:30 PM82 °FBroken clouds.3 mph74%30.07 "HgN/A
12:00 PM82 °FBroken clouds.3 mph74%30.09 "HgN/A
11:30 AM81 °FScattered clouds.1 mph79%30.09 "HgN/A
11:00 AM81 °FBroken clouds.3 mph79%30.09 "HgN/A
10:30 AM79 °FBroken clouds.3 mph79%30.12 "HgN/A
10:00 AM77 °FPartly sunny.1 mph89%30.12 "HgN/A
9:30 AM73 °FBroken clouds.No wind100%30.12 "HgN/A
9:00 AM73 °FPartly sunny.2 mph94%30.12 "HgN/A
8:30 AM73 °FBroken clouds.1 mph100%30.12 "HgN/A
8:00 AM72 °FPartly sunny.3 mph100%30.12 "HgN/A
7:30 AM70 °FPartly sunny.3 mph100%30.09 "HgN/A
7:00 AM68 °FPartly sunny.3 mph100%30.09 "HgN/A
6:30 AM68 °FBroken clouds.1 mph100%30.09 "HgN/A
6:00 AM66 °FBroken clouds.No wind100%30.09 "HgN/A
5:30 AM66 °FPartly sunny.2 mph100%30.07 "HgN/A
5:00 AM66 °FPassing clouds.1 mph100%30.07 "HgN/A
4:30 AM66 °FPassing clouds.1 mph100%30.07 "HgN/A
4:00 AM66 °FPassing clouds.2 mph100%30.07 "HgN/A
3:00 AM66 °FPassing clouds.1 mph100%30.07 "HgN/A
2:30 AM66 °FPassing clouds.No wind100%30.07 "HgN/A
2:00 AM66 °FPassing clouds.1 mph100%30.07 "HgN/A
1:30 AM66 °FPassing clouds.5 mph100%30.07 "HgN/A
1:00 AM66 °FLight rain. Passing clouds.No wind100%30.09 "HgN/A
12:30 AM66 °FLight rain. Passing clouds.2 mph100%30.09 "HgN/A
12:00 AM66 °FLight rain. Passing clouds.2 mph100%30.12 "HgN/A
11:30 PM
Dec 20
68 °FThunderstorms. Passing clouds.6 mph100%30.12 "HgN/A
11:00 PM66 °FThunderstorms. Partly cloudy.7 mph100%30.12 "HgN/A
10:30 PM68 °FThunderstorms. Partly cloudy.3 mph100%30.15 "HgN/A
10:00 PM70 °FThunderstorms. Partly cloudy.5 mph100%30.12 "HgN/A
9:30 PM70 °FThunderstorms. Partly cloudy.5 mph100%30.12 "Hg5 mi
9:00 PM70 °FThunderstorms. Partly cloudy.9 mph100%30.09 "HgN/A
8:30 PM70 °FThunderstorms. Partly cloudy.7 mph100%30.09 "HgN/A
8:00 PM70 °FThunderstorms. Partly cloudy.10 mph100%30.09 "HgN/A
7:30 PM73 °FThunderstorms. Partly cloudy.6 mph100%30.09 "HgN/A
7:00 PM73 °FThunderstorms. Partly cloudy.1 mph94%30.07 "HgN/A
6:30 PM73 °FPartly cloudy.1 mph94%30.07 "HgN/A
6:00 PM75 °FBroken clouds.2 mph89%30.07 "HgN/A
5:30 PM77 °FBroken clouds.1 mph79%30.04 "HgN/A
5:00 PM77 °FBroken clouds.1 mph89%30.04 "HgN/A
4:30 PM75 °FScattered showers. Scattered clouds.5 mph94%30.04 "HgN/A
4:00 PM72 °FScattered showers. Scattered clouds.6 mph100%30.04 "HgN/A
3:00 PM81 °FScattered clouds.7 mph74%30.04 "HgN/A
2:30 PM81 °FScattered clouds.6 mph79%30.07 "HgN/A
2:00 PM81 °FScattered clouds.7 mph74%30.07 "HgN/A
Weather by CustomWeather, © 2014

See weather overviewHow to use our weather pages